Temp
63 65 66 67 68 69 69 70 70 71 71 71 71 70 71 71 72 72 72 72 71 71 71 71 71 70 68 67 67 67 60 61
62 63 64 65 66 69 69 69 69 70 70 69 69 70 70 71 71 71 72 71 71 71 70 69 69 69 67 66 66 65 59 59
61 62 63 65 65 68 69 70 69 69 69 69 66 65 66 67 69 70 70 69 70 70 69 68 67 67 67 66 65 59 59 58
61 62 63 64 69 66 65 67 66 66 66 66 65 64 64 67 67 68 69 68 68 68 67 66 64 60 60 63 57 57 57 57
62 64 65 64 66 63 63 63 63 64 65 64 64 64 63 62 61 61 61 65 63 63 62 61 60 59 58 57 57 56 53 55
63 63 63 64 64 62 63 63 63 63 64 65 62 60 60 60 58 58 59 58 58 58 57 58 57 58 58 57 56 54 53 54
63 63 63 63 63 61 62 63 64 64 63 63 61 59 58 58 57 57 57 57 57 56 56 56 56 56 56 56 55 54 53 52
63 62 64 63 63 63 62 63 62 62 62 61 62 59 57 56 56 56 56 55 55 54 54 54 53 54 54 54 53 52 52 52
62 62 63 63 63 62 61 62 61 61 60 61 60 58 57 56 55 54 54 54 54 53 53 53 52 54 52 52 51 51 51 51
63 68 63 61 61 59 59 59 59 58 58 58 59 59 57 55 54 53 53 53 53 52 51 51 50 50 48 47 48 49 50 49
63 63 60 60 59 59 59 58 57 56 56 57 57 57 57 54 53 53 53 52 51 53 49 49 47 47 50 46 45 45 46 50
62 61 60 59 59 57 55 55 55 55 55 56 57 56 56 54 53 52 52 51 50 49 48 47 46 45 52 47 43 43 44 43
61 60 59 60 58 55 54 53 53 54 54 56 55 55 55 53 51 51 50 49 48 48 46 46 44 43 43 43 41 42 42 42
61 62 59 60 61 57 56 54 52 52 53 53 54 54 53 53 50 48 48 48 47 46 45 44 42 41 41 38 37 40 41 41
62 62 61 61 59 56 53 53 52 51 50 50 52 53 52 50 49 47 47 46 44 43 44 44 41 40 40 40 34 32 34 38
65 64 62 61 59 58 58 55 53 50 50 49 49 50 50 49 48 47 45 45 44 44 45 41 41 39 40 43 39 37 33 31
64 63 62 62 60 60 55 51 50 48 48 48 47 47 48 48 47 46 45 45 45 45 43 42 42 40 38 37 36 35 34 31
61 60 61 60 60 61 57 52 49 48 46 45 45 45 45 47 47 45 45 45 47 46 42 41 40 39 38 38 37 35 34 31
60 60 60 60 58 58 57 55 51 51 48 45 44 45 44 45 45 46 48 48 47 45 42 41 39 38 38 37 37 36 36 34
61 59 56 56 56 55 54 54 54 54 51 49 45 45 44 45 46 48 48 48 43 42 43 39 40 38 38 37 37 36 36 35
MSLP
1017.14 1016.86 1017.10 1017.12 1017.60 1017.88 1017.97 1018.37 1018.64 1019.17 1019.55 1019.84 1020.11 1020.07 1020.17 1020.39 1020.64 1020.57 1020.50 1020.58 1020.69 1020.87 1020.87 1020.96 1021.17 1021.48 1021.32 1021.34 1021.47 1021.76 1021.95 1022.14
1018.30 1018.07 1017.85 1018.63 1018.46 1017.88 1018.12 1018.60 1019.22 1019.62 1019.80 1020.22 1020.24 1020.36 1020.59 1020.70 1020.93 1020.79 1020.90 1020.90 1020.98 1021.14 1021.38 1021.38 1021.51 1021.69 1021.86 1021.82 1021.98 1022.07 1022.23 1022.30
1018.54 1018.35 1018.41 1019.13 1018.75 1018.87 1019.20 1019.61 1019.78 1020.01 1020.19 1020.51 1020.67 1020.74 1020.75 1021.05 1021.00 1020.96 1020.93 1021.10 1021.30 1021.38 1021.52 1021.64 1021.79 1022.11 1022.38 1022.29 1022.41 1022.53 1022.44 1022.52
1018.88 1018.69 1019.37 1019.48 1019.54 1019.38 1019.66 1019.97 1020.36 1020.48 1020.58 1020.90 1021.20 1021.10 1021.31 1021.26 1021.35 1021.19 1021.18 1021.33 1021.44 1021.60 1021.88 1022.03 1022.14 1022.43 1022.66 1022.75 1023.05 1023.06 1023.04 1022.82
1019.11 1019.25 1019.24 1019.45 1019.51 1019.80 1019.98 1020.03 1020.68 1020.77 1020.71 1020.97 1021.12 1021.42 1021.57 1021.61 1021.63 1021.73 1021.95 1021.94 1022.05 1022.19 1022.48 1022.56 1022.79 1022.98 1023.38 1023.10 1023.36 1023.32 1023.40 1023.24
1019.17 1019.21 1019.26 1019.48 1019.72 1020.11 1020.57 1020.59 1020.82 1020.82 1020.70 1020.94 1021.23 1021.44 1021.73 1021.88 1022.17 1022.24 1022.50 1022.50 1022.73 1022.99 1023.13 1023.18 1023.34 1023.55 1023.62 1023.64 1023.73 1023.84 1023.73 1023.51
1018.75 1019.06 1019.13 1019.56 1019.80 1020.24 1020.34 1020.41 1020.61 1020.80 1020.86 1021.03 1021.25 1021.61 1022.12 1022.16 1022.54 1022.55 1023.04 1023.10 1023.18 1023.49 1023.43 1023.59 1023.80 1024.02 1024.09 1024.09 1024.13 1024.39 1023.93 1023.93
1018.44 1018.77 1019.03 1019.57 1019.80 1020.31 1020.32 1020.41 1020.64 1020.77 1020.94 1021.04 1021.59 1021.77 1022.32 1022.60 1022.83 1022.92 1023.30 1023.47 1023.71 1023.91 1024.29 1024.12 1024.34 1024.21 1024.47 1024.50 1024.79 1024.67 1024.55 1024.41
1018.39 1018.72 1018.98 1019.40 1019.71 1019.91 1020.40 1020.44 1020.78 1021.00 1021.26 1021.53 1021.92 1022.18 1022.41 1022.90 1023.04 1023.37 1023.52 1023.91 1024.06 1024.35 1024.40 1024.55 1024.76 1024.88 1024.85 1024.82 1025.11 1024.99 1024.94 1024.91
1018.43 1018.79 1019.20 1019.56 1019.86 1020.11 1020.27 1020.65 1020.93 1021.25 1021.49 1021.85 1021.99 1022.24 1022.50 1022.80 1023.12 1023.42 1023.87 1024.05 1024.06 1024.48 1024.59 1024.97 1025.19 1025.19 1025.50 1025.35 1025.37 1025.32 1025.37 1025.36
1018.37 1018.74 1019.20 1019.59 1019.95 1020.31 1020.56 1020.90 1021.21 1021.50 1021.62 1021.93 1022.16 1022.43 1022.60 1022.75 1023.22 1023.78 1023.83 1024.06 1024.28 1024.38 1024.91 1025.08 1025.67 1025.56 1025.45 1025.76 1025.92 1025.93 1025.80 1025.54
1018.31 1018.73 1019.23 1019.65 1020.16 1020.71 1021.35 1021.54 1021.86 1021.90 1021.94 1022.03 1022.33 1022.35 1022.65 1023.04 1023.42 1023.74 1023.98 1024.22 1024.60 1024.68 1025.04 1025.44 1025.63 1025.59 1025.65 1026.01 1026.24 1026.22 1026.13 1026.20
1018.37 1018.83 1019.32 1019.72 1020.54 1021.06 1021.57 1021.89 1022.04 1022.15 1022.28 1022.28 1022.32 1022.54 1022.81 1023.01 1023.46 1023.92 1024.08 1024.38 1024.61 1024.69 1025.21 1025.47 1025.68 1025.56 1025.77 1026.33 1026.66 1026.71 1026.74 1026.64
1018.19 1018.70 1019.28 1019.77 1020.10 1020.46 1020.90 1021.56 1022.16 1022.31 1022.41 1022.72 1022.61 1022.73 1022.99 1023.26 1023.80 1024.10 1024.11 1024.42 1024.65 1024.86 1025.00 1025.43 1025.90 1026.09 1026.37 1026.89 1027.31 1027.30 1027.12 1027.00
1017.59 1018.05 1018.56 1019.18 1019.63 1020.25 1021.07 1021.82 1022.51 1022.90 1023.02 1023.07 1023.16 1023.12 1023.31 1023.68 1023.94 1024.13 1024.49 1024.68 1025.11 1025.32 1025.44 1025.55 1026.26 1026.58 1026.63 1027.02 1027.84 1028.05 1027.84 1027.38
1016.70 1017.19 1018.00 1018.68 1019.21 1019.93 1020.54 1021.43 1022.33 1022.58 1022.93 1023.27 1023.51 1023.68 1024.01 1024.10 1024.16 1024.40 1024.54 1024.75 1025.40 1025.71 1025.67 1025.91 1026.26 1026.93 1027.11 1027.20 1027.35 1027.78 1028.31 1028.50
1016.77 1017.29 1017.89 1018.42 1018.95 1019.32 1020.28 1021.27 1021.85 1022.12 1022.87 1023.39 1023.90 1024.15 1024.11 1024.23 1024.46 1024.66 1024.80 1025.07 1025.52 1025.81 1026.22 1026.38 1026.53 1026.88 1027.04 1027.37 1027.70 1027.82 1027.94 1028.39
1016.80 1017.12 1017.54 1018.04 1018.48 1018.94 1019.54 1020.66 1021.55 1022.20 1022.96 1023.46 1023.87 1024.18 1024.41 1024.53 1024.76 1025.10 1025.24 1025.49 1025.73 1025.68 1026.09 1026.22 1026.50 1026.71 1026.96 1027.14 1027.44 1027.78 1027.95 1028.17
1016.59 1016.86 1017.20 1017.47 1018.23 1018.76 1019.20 1020.05 1020.95 1021.60 1022.12 1023.15 1023.89 1024.29 1024.64 1024.74 1024.83 1024.96 1025.23 1025.40 1025.74 1026.17 1026.02 1026.26 1026.46 1026.53 1026.91 1027.16 1027.15 1027.32 1027.44 1027.64
1016.20 1016.44 1017.04 1017.24 1017.88 1018.47 1019.09 1019.76 1020.58 1021.24 1021.85 1022.79 1023.44 1023.97 1024.44 1024.62 1024.82 1025.12 1025.30 1025.60 1025.79 1026.19 1026.27 1026.33 1026.39 1026.54 1026.64 1026.84 1026.88 1026.96 1027.03 1027.18
Wind_Speed
12 12 17 12 12 12 12 12 12 12 11 12 13 13 12 11 10 9 9 9 9 9 9 10 11 13 12 12 12 10 7 4
15 9 11 1 2 9 9 10 10 10 11 11 12 11 10 9 7 6 7 10 10 9 10 12 12 15 12 11 10 10 6 4
13 13 13 3 5 4 7 8 9 10 10 10 7 4 5 6 6 6 8 9 7 9 12 12 13 12 11 10 10 3 4 2
12 13 15 8 5 4 4 4 3 3 5 5 4 4 3 4 5 7 8 11 14 14 13 12 9 5 4 9 4 5 3 2
10 9 7 5 1 3 1 3 3 3 5 4 5 3 3 3 3 4 4 7 4 6 6 5 7 5 5 5 5 5 3 3
10 6 4 5 3 3 3 3 3 3 4 5 4 3 4 4 3 4 4 4 6 5 4 5 7 6 6 6 6 5 4 3
11 7 4 4 4 3 3 4 4 4 4 5 4 4 4 4 4 5 4 4 4 4 5 5 6 6 5 5 7 6 6 4
8 7 6 6 5 6 4 3 3 4 4 5 5 4 5 4 4 4 5 4 4 5 4 5 4 4 6 6 6 6 6 6
7 6 7 7 6 5 4 4 3 4 4 5 6 5 6 5 5 4 4 4 6 4 4 5 5 3 6 5 4 6 6 7
6 7 7 7 6 4 4 4 4 4 4 4 6 6 6 5 5 5 4 4 4 4 3 3 4 4 2 4 4 5 6 6
7 7 8 7 6 4 4 5 4 3 4 4 6 6 6 6 5 4 5 4 4 3 3 3 2 2 3 4 4 4 5 5
8 7 8 7 5 5 4 4 3 3 4 4 6 5 6 6 5 5 4 4 3 3 3 2 2 2 3 5 4 3 4 5
8 9 6 7 5 4 3 4 3 3 3 6 6 6 6 6 5 5 4 4 3 3 2 3 4 2 3 3 3 3 4 4
10 11 10 7 6 3 3 4 2 2 2 3 5 6 6 6 6 5 5 4 5 4 3 2 3 4 3 3 3 3 1 3
14 15 14 9 7 6 4 5 4 2 1 2 2 5 6 6 6 6 6 4 4 3 3 4 3 4 5 3 1 3 2 3
15 15 14 10 10 8 12 8 7 4 4 3 4 6 6 6 6 6 5 4 5 3 2 2 3 2 2 3 3 3 3 3
12 12 12 10 11 12 9 5 2 3 4 7 6 5 6 6 6 6 6 4 4 5 4 4 2 3 2 1 1 1 1 2
9 11 13 9 11 12 13 11 8 8 5 5 4 3 4 5 6 6 5 5 4 4 4 4 3 3 2 3 3 3 3 3
11 12 14 12 10 9 11 11 11 11 9 5 6 4 2 4 4 4 3 3 4 3 4 4 4 3 4 3 3 3 3 2
13 11 8 8 9 9 8 11 8 7 7 7 4 4 5 4 5 4 3 3 4 5 2 2 3 3 5 4 3 3 3 3
Wind_Direction
50 63 80 54 91 107 118 138 121 120 123 117 119 123 125 131 137 124 115 111 87 75 61 58 91 92 85 95 90 82 76 63
109 75 74 100 313 119 107 102 112 119 121 135 135 135 139 122 113 114 100 76 75 69 60 56 69 80 79 86 95 78 74 62
136 123 111 242 282 117 114 122 124 133 132 145 124 106 105 115 129 103 75 74 78 84 80 74 70 71 80 80 68 57 63 59
134 152 166 207 222 96 104 120 106 116 128 119 98 114 132 112 75 68 78 88 83 86 83 76 70 65 48 54 51 50 33 20
188 186 179 189 177 137 151 119 145 146 142 146 147 119 92 81 65 64 71 74 67 63 57 57 63 62 46 48 55 48 33 30
181 199 185 182 151 143 167 141 150 165 177 153 137 122 105 91 86 82 77 65 76 70 75 72 64 60 54 59 53 42 24 23
189 190 169 186 155 156 155 184 181 184 145 123 118 112 113 103 90 86 78 75 77 76 73 73 67 62 47 67 55 42 39 26
189 195 175 166 166 170 181 166 130 119 117 129 133 119 121 112 108 91 74 67 68 74 73 69 60 59 60 45 52 54 46 36
188 183 173 171 177 156 157 144 124 118 127 131 128 133 122 115 106 85 87 87 95 80 64 63 54 49 60 57 63 56 50 40
171 176 164 156 150 141 133 133 131 131 121 129 129 120 118 104 97 89 107 100 93 80 75 71 58 60 64 51 52 60 58 46
158 152 150 142 129 126 113 116 116 125 124 120 125 124 120 109 106 127 123 103 84 95 61 108 97 50 98 76 62 62 55 55
146 150 140 132 114 102 70 96 105 120 118 120 132 125 123 118 119 111 99 96 83 77 100 69 115 99 76 75 79 62 57 59
154 142 145 137 139 134 123 148 139 102 130 141 132 136 137 121 104 111 104 96 106 80 107 64 41 35 87 41 52 45 46 54
159 162 163 171 162 152 128 132 103 124 125 142 140 129 128 114 118 110 94 96 69 63 77 87 73 9 107 78 356 329 356 46
175 175 175 175 156 117 82 68 58 72 122 120 118 115 92 99 96 87 73 67 57 38 42 78 112 17 36 124 70 245 340 335
186 179 177 174 157 151 164 171 169 183 158 129 84 84 98 96 89 86 89 80 61 39 66 89 100 117 10 31 63 136 192 312
195 181 180 174 174 174 165 163 149 121 109 116 107 99 95 97 96 83 77 78 89 99 92 90 89 133 145 127 38 14 131 160
194 180 187 178 182 185 177 169 154 141 145 137 126 115 96 92 88 86 96 112 146 151 154 140 145 135 154 164 176 197 215 191
192 186 193 192 189 182 170 166 163 169 154 144 142 136 120 118 112 92 118 165 160 184 156 166 175 165 177 207 196 206 179 184
191 192 186 166 173 165 149 154 159 161 145 146 146 131 136 131 109 106 124 180 178 197 205 206 202 210 208 218 212 205 188 174